Year,Month,Day,Hour,Minute,Value (Times are PST for temperature in C)
2016,04,28,00,00,6.80
2016,04,28,00,01,6.80
2016,04,28,00,02,6.80
2016,04,28,00,03,6.80
2016,04,28,00,04,6.70
2016,04,28,00,05,6.70
2016,04,28,00,06,6.70
2016,04,28,00,07,6.70
2016,04,28,00,08,6.70
2016,04,28,00,09,6.70
2016,04,28,00,10,6.70
2016,04,28,00,11,6.70
2016,04,28,00,12,6.70
2016,04,28,00,13,6.70
2016,04,28,00,14,6.70
2016,04,28,00,15,6.70
2016,04,28,00,16,6.70
2016,04,28,00,17,6.70
2016,04,28,00,18,6.70
2016,04,28,00,19,6.60
2016,04,28,00,20,6.60
2016,04,28,00,21,6.60
2016,04,28,00,22,6.60
2016,04,28,00,23,6.60
2016,04,28,00,24,6.60
2016,04,28,00,25,6.60
2016,04,28,00,26,6.60
2016,04,28,00,27,6.60
2016,04,28,00,28,6.60
2016,04,28,00,29,6.60
2016,04,28,00,30,6.50
2016,04,28,00,31,6.50
2016,04,28,00,32,6.50
2016,04,28,00,33,6.50
2016,04,28,00,34,6.50
2016,04,28,00,35,6.50
2016,04,28,00,36,6.50
2016,04,28,00,37,6.40
2016,04,28,00,38,6.40
2016,04,28,00,39,6.40
2016,04,28,00,40,6.40
2016,04,28,00,41,6.40
2016,04,28,00,42,6.40
2016,04,28,00,43,6.40
2016,04,28,00,44,6.30
2016,04,28,00,45,6.30
2016,04,28,00,46,6.30
2016,04,28,00,47,6.30
2016,04,28,00,48,6.30
2016,04,28,00,49,6.30
2016,04,28,00,50,6.30
2016,04,28,00,51,6.30
2016,04,28,00,52,6.30
2016,04,28,00,53,6.30
2016,04,28,00,54,6.30
2016,04,28,00,55,6.30
2016,04,28,00,56,6.30
2016,04,28,00,57,6.30
2016,04,28,00,58,6.30
2016,04,28,00,59,6.30
2016,04,28,01,00,6.30
2016,04,28,01,01,6.30
2016,04,28,01,02,6.30
2016,04,28,01,03,6.30
2016,04,28,01,04,6.30
2016,04,28,01,05,6.30
2016,04,28,01,06,6.30
2016,04,28,01,07,6.30
2016,04,28,01,08,6.30
2016,04,28,01,09,6.30
2016,04,28,01,10,6.30
2016,04,28,01,11,6.20
2016,04,28,01,12,6.20
2016,04,28,01,13,6.20
2016,04,28,01,14,6.20
2016,04,28,01,15,6.20
2016,04,28,01,16,6.20
2016,04,28,01,17,6.20
2016,04,28,01,18,6.20
2016,04,28,01,19,6.20
2016,04,28,01,20,6.10
2016,04,28,01,21,6.10
2016,04,28,01,22,6.10
2016,04,28,01,23,6.10
2016,04,28,01,24,6.10
2016,04,28,01,25,6.10
2016,04,28,01,26,6.10
2016,04,28,01,27,6.10
2016,04,28,01,28,6.10
2016,04,28,01,29,6.10
2016,04,28,01,30,6.10
2016,04,28,01,31,6.10
2016,04,28,01,32,6.10
2016,04,28,01,33,6.00
2016,04,28,01,34,6.00
2016,04,28,01,35,6.00
2016,04,28,01,36,6.00
2016,04,28,01,37,5.90
2016,04,28,01,38,5.90
2016,04,28,01,39,5.90
2016,04,28,01,40,5.90
2016,04,28,01,41,5.90
2016,04,28,01,42,5.90
2016,04,28,01,43,5.90
2016,04,28,01,44,5.90
2016,04,28,01,45,5.90
2016,04,28,01,46,5.90
2016,04,28,01,47,5.90
2016,04,28,01,48,5.80
2016,04,28,01,49,5.80
2016,04,28,01,50,5.80
2016,04,28,01,51,5.80
2016,04,28,01,52,5.80
2016,04,28,01,53,5.80
2016,04,28,01,54,5.80
2016,04,28,01,55,5.80
2016,04,28,01,56,5.80
2016,04,28,01,57,5.80
2016,04,28,01,58,5.80
2016,04,28,01,59,5.80
2016,04,28,02,00,5.80
2016,04,28,02,01,5.90
2016,04,28,02,02,5.90
2016,04,28,02,03,5.80
2016,04,28,02,04,5.80
2016,04,28,02,05,5.80
2016,04,28,02,06,5.80
2016,04,28,02,07,5.80
2016,04,28,02,08,5.80
2016,04,28,02,09,5.80
2016,04,28,02,10,5.80
2016,04,28,02,11,5.80
2016,04,28,02,12,5.80
2016,04,28,02,13,5.90
2016,04,28,02,14,5.90
2016,04,28,02,15,5.90
2016,04,28,02,16,5.90
2016,04,28,02,17,5.90
2016,04,28,02,18,5.90
2016,04,28,02,19,5.90
2016,04,28,02,20,5.80
2016,04,28,02,21,5.80
2016,04,28,02,22,5.80
2016,04,28,02,23,5.80
2016,04,28,02,24,5.80
2016,04,28,02,25,5.80
2016,04,28,02,26,5.80
2016,04,28,02,27,5.80
2016,04,28,02,28,5.80
2016,04,28,02,29,5.80
2016,04,28,02,30,5.80
2016,04,28,02,31,5.80
2016,04,28,02,32,5.80
2016,04,28,02,33,5.80
2016,04,28,02,34,5.80
2016,04,28,02,35,5.80
2016,04,28,02,36,5.90
2016,04,28,02,37,5.90
2016,04,28,02,38,5.90
2016,04,28,02,39,5.90
2016,04,28,02,40,5.90
2016,04,28,02,41,5.90
2016,04,28,02,42,6.00
2016,04,28,02,43,6.00
2016,04,28,02,44,6.00
2016,04,28,02,45,6.00
2016,04,28,02,46,6.00
2016,04,28,02,47,6.00
2016,04,28,02,48,6.00
2016,04,28,02,49,6.00
2016,04,28,02,50,6.10
2016,04,28,02,51,6.10
2016,04,28,02,52,6.10
2016,04,28,02,53,6.10
2016,04,28,02,54,6.10
2016,04,28,02,55,6.20
2016,04,28,02,56,6.20
2016,04,28,02,57,6.20
2016,04,28,02,58,6.20
2016,04,28,02,59,6.20
2016,04,28,03,00,6.30
2016,04,28,03,01,6.30
2016,04,28,03,02,6.30
2016,04,28,03,03,6.40
2016,04,28,03,06,6.40
2016,04,28,03,07,6.50
2016,04,28,03,08,6.50
2016,04,28,03,09,6.50
2016,04,28,03,10,6.60
2016,04,28,03,11,6.60
2016,04,28,03,12,6.60
2016,04,28,03,13,6.60
2016,04,28,03,14,6.60
2016,04,28,03,15,6.60
2016,04,28,03,16,6.60
2016,04,28,03,17,6.70
2016,04,28,03,18,6.70
2016,04,28,03,19,6.70
2016,04,28,03,20,6.70
2016,04,28,03,21,6.70
2016,04,28,03,22,6.70
2016,04,28,03,23,6.70
2016,04,28,03,24,6.80
2016,04,28,03,25,6.80
2016,04,28,03,26,6.80
2016,04,28,03,27,6.80
2016,04,28,03,28,6.80
2016,04,28,03,29,6.80
2016,04,28,03,30,6.80
2016,04,28,03,31,6.80
2016,04,28,03,32,6.80
2016,04,28,03,33,6.80
2016,04,28,03,34,6.80
2016,04,28,03,35,6.80
2016,04,28,03,36,6.80
2016,04,28,03,37,6.80
2016,04,28,03,38,6.70
2016,04,28,03,39,6.70
2016,04,28,03,40,6.70
2016,04,28,03,41,6.70
2016,04,28,03,42,6.70
2016,04,28,03,43,6.70
2016,04,28,03,44,6.70
2016,04,28,03,45,6.70
2016,04,28,03,46,6.70
2016,04,28,03,47,6.70
2016,04,28,03,48,6.70
2016,04,28,03,49,6.70
2016,04,28,03,50,6.70
2016,04,28,03,51,6.70
2016,04,28,03,52,6.60
2016,04,28,03,53,6.60
2016,04,28,03,54,6.60
2016,04,28,03,55,6.60
2016,04,28,03,56,6.60
2016,04,28,03,57,6.60
2016,04,28,03,58,6.60
2016,04,28,03,59,6.60
2016,04,28,04,00,6.60
2016,04,28,04,01,6.50
2016,04,28,04,02,6.50
2016,04,28,04,03,6.50
2016,04,28,04,04,6.50
2016,04,28,04,05,6.50
2016,04,28,04,06,6.50
2016,04,28,04,07,6.50
2016,04,28,04,08,6.50
2016,04,28,04,09,6.50
2016,04,28,04,10,6.50
2016,04,28,04,11,6.50
2016,04,28,04,12,6.60
2016,04,28,04,13,6.60
2016,04,28,04,14,6.60
2016,04,28,04,15,6.60
2016,04,28,04,16,6.60
2016,04,28,04,17,6.60
2016,04,28,04,18,6.60
2016,04,28,04,19,6.60
2016,04,28,04,20,6.60
2016,04,28,04,21,6.60
2016,04,28,04,22,6.60
2016,04,28,04,23,6.60
2016,04,28,04,24,6.60
2016,04,28,04,25,6.60
2016,04,28,04,26,6.60
2016,04,28,04,27,6.60
2016,04,28,04,28,6.60
2016,04,28,04,29,6.50
2016,04,28,04,30,6.50
2016,04,28,04,31,6.40
2016,04,28,04,32,6.40
2016,04,28,04,33,6.40
2016,04,28,04,34,6.40
2016,04,28,04,35,6.40
2016,04,28,04,36,6.30
2016,04,28,04,37,6.30
2016,04,28,04,38,6.30
2016,04,28,04,39,6.30
2016,04,28,04,40,6.30
2016,04,28,04,41,6.30
2016,04,28,04,42,6.20
2016,04,28,04,43,6.20
2016,04,28,04,44,6.20
2016,04,28,04,45,6.20
2016,04,28,04,46,6.20
2016,04,28,04,47,6.20
2016,04,28,04,48,6.20
2016,04,28,04,49,6.20
2016,04,28,04,50,6.20
2016,04,28,04,51,6.30
2016,04,28,04,52,6.30
2016,04,28,04,53,6.20
2016,04,28,04,54,6.30
2016,04,28,04,55,6.20
2016,04,28,04,56,6.20
2016,04,28,04,57,6.20
2016,04,28,04,58,6.20
2016,04,28,04,59,6.20
2016,04,28,05,00,6.20
2016,04,28,05,01,6.20
2016,04,28,05,02,6.20
2016,04,28,05,03,6.20
2016,04,28,05,04,6.20
2016,04,28,05,05,6.20
2016,04,28,05,06,6.10
2016,04,28,05,07,6.10
2016,04,28,05,08,6.10
2016,04,28,05,09,6.10
2016,04,28,05,10,6.20
2016,04,28,05,11,6.20
2016,04,28,05,12,6.20
2016,04,28,05,13,6.20
2016,04,28,05,14,6.20
2016,04,28,05,15,6.20
2016,04,28,05,16,6.20
2016,04,28,05,17,6.20
2016,04,28,05,18,6.20
2016,04,28,05,19,6.20
2016,04,28,05,20,6.20
2016,04,28,05,21,6.20
2016,04,28,05,22,6.20
2016,04,28,05,23,6.20
2016,04,28,05,24,6.20
2016,04,28,05,25,6.20
2016,04,28,05,26,6.20
2016,04,28,05,27,6.20
2016,04,28,05,28,6.20
2016,04,28,05,29,6.20
2016,04,28,05,30,6.20
2016,04,28,05,31,6.20
2016,04,28,05,32,6.30
2016,04,28,05,33,6.30
2016,04,28,05,34,6.30
2016,04,28,05,35,6.30
2016,04,28,05,36,6.30
2016,04,28,05,37,6.30
2016,04,28,05,38,6.30
2016,04,28,05,39,6.30
2016,04,28,05,40,6.30
2016,04,28,05,41,6.30
2016,04,28,05,42,6.40
2016,04,28,05,43,6.40
2016,04,28,05,44,6.40
2016,04,28,05,45,6.40
2016,04,28,05,46,6.40
2016,04,28,05,47,6.40
2016,04,28,05,48,6.40
2016,04,28,05,49,6.40
2016,04,28,05,50,6.40
2016,04,28,05,51,6.40
2016,04,28,05,52,6.40
2016,04,28,05,53,6.40
2016,04,28,05,54,6.40
2016,04,28,05,55,6.40
2016,04,28,05,56,6.40
2016,04,28,05,57,6.40
2016,04,28,05,58,6.50
2016,04,28,05,59,6.50
2016,04,28,06,00,6.50
2016,04,28,06,01,6.50
2016,04,28,06,02,6.50
2016,04,28,06,03,6.60
2016,04,28,06,04,6.60
2016,04,28,06,05,6.60
2016,04,28,06,06,6.70
2016,04,28,06,07,6.70
2016,04,28,06,08,6.70
2016,04,28,06,09,6.70
2016,04,28,06,10,6.80
2016,04,28,06,11,6.80
2016,04,28,06,12,6.90
2016,04,28,06,13,6.90
2016,04,28,06,14,6.90
2016,04,28,06,15,7.00
2016,04,28,06,16,7.00
2016,04,28,06,17,7.10
2016,04,28,06,18,7.10
2016,04,28,06,19,7.10
2016,04,28,06,20,7.10
2016,04,28,06,21,7.20
2016,04,28,06,22,7.20
2016,04,28,06,23,7.20
2016,04,28,06,24,7.20
2016,04,28,06,25,7.20
2016,04,28,06,26,7.30
2016,04,28,06,27,7.30
2016,04,28,06,28,7.30
2016,04,28,06,29,7.30
2016,04,28,06,30,7.30
2016,04,28,06,31,7.40
2016,04,28,06,32,7.40
2016,04,28,06,33,7.40
2016,04,28,06,34,7.40
2016,04,28,06,35,7.40
2016,04,28,06,36,7.40
2016,04,28,06,37,7.40
2016,04,28,06,38,7.50
2016,04,28,06,39,7.50
2016,04,28,06,40,7.50
2016,04,28,06,41,7.50
2016,04,28,06,42,7.50
2016,04,28,06,43,7.50
2016,04,28,06,44,7.50
2016,04,28,06,45,7.50
2016,04,28,06,46,7.60
2016,04,28,06,47,7.60
2016,04,28,06,48,7.60
2016,04,28,06,49,7.60
2016,04,28,06,50,7.60
2016,04,28,06,51,7.60
2016,04,28,06,52,7.70
2016,04,28,06,53,7.70
2016,04,28,06,54,7.70
2016,04,28,06,55,7.70
2016,04,28,06,56,7.70
2016,04,28,06,57,7.70
2016,04,28,06,58,7.80
2016,04,28,06,59,7.80
2016,04,28,07,00,7.80
2016,04,28,07,01,7.80
2016,04,28,07,02,7.90
2016,04,28,07,03,7.90
2016,04,28,07,04,7.90
2016,04,28,07,05,7.90
2016,04,28,07,06,7.90
2016,04,28,07,07,7.90
2016,04,28,07,08,8.00
2016,04,28,07,09,8.00
2016,04,28,07,10,8.00
2016,04,28,07,11,8.10
2016,04,28,07,12,8.10
2016,04,28,07,13,8.20
2016,04,28,07,14,8.20
2016,04,28,07,15,8.20
2016,04,28,07,16,8.30
2016,04,28,07,17,8.30
2016,04,28,07,18,8.30
2016,04,28,07,19,8.40
2016,04,28,07,20,8.40
2016,04,28,07,21,8.40
2016,04,28,07,22,8.50
2016,04,28,07,23,8.50
2016,04,28,07,24,8.50
2016,04,28,07,25,8.60
2016,04,28,07,26,8.60
2016,04,28,07,27,8.60
2016,04,28,07,28,8.60
2016,04,28,07,29,8.70
2016,04,28,07,30,8.70
2016,04,28,07,31,8.70
2016,04,28,07,32,8.70
2016,04,28,07,33,8.70
2016,04,28,07,34,8.70
2016,04,28,07,35,8.80
2016,04,28,07,36,8.80
2016,04,28,07,37,8.80
2016,04,28,07,38,8.90
2016,04,28,07,39,8.90
2016,04,28,07,40,9.00
2016,04,28,07,41,9.10
2016,04,28,07,42,9.10
2016,04,28,07,43,9.20
2016,04,28,07,44,9.20
2016,04,28,07,45,9.30
2016,04,28,07,46,9.30
2016,04,28,07,47,9.40
2016,04,28,07,48,9.40
2016,04,28,07,49,9.50
2016,04,28,07,50,9.50
2016,04,28,07,51,9.60
2016,04,28,07,52,9.60
2016,04,28,07,53,9.70
2016,04,28,07,54,9.70
2016,04,28,07,55,9.80
2016,04,28,07,56,9.80
2016,04,28,07,57,9.80
2016,04,28,07,58,9.90
2016,04,28,07,59,10.00
2016,04,28,08,00,10.00
2016,04,28,08,01,10.00
2016,04,28,08,02,10.10
2016,04,28,08,03,10.10
2016,04,28,08,04,10.10
2016,04,28,08,05,10.20
2016,04,28,08,06,10.20
2016,04,28,08,07,10.20
2016,04,28,08,08,10.20
2016,04,28,08,09,10.30
2016,04,28,08,10,10.30
2016,04,28,08,11,10.30
2016,04,28,08,12,10.30
2016,04,28,08,13,10.40
2016,04,28,08,14,10.40
2016,04,28,08,15,10.50
2016,04,28,08,16,10.50
2016,04,28,08,17,10.60
2016,04,28,08,18,10.70
2016,04,28,08,19,10.80
2016,04,28,08,20,10.80
2016,04,28,08,21,10.90
2016,04,28,08,22,11.00
2016,04,28,08,23,11.00
2016,04,28,08,24,11.10
2016,04,28,08,25,11.20
2016,04,28,08,26,11.30
2016,04,28,08,27,11.40
2016,04,28,08,28,11.40
2016,04,28,08,29,11.40
2016,04,28,08,30,11.50
2016,04,28,08,31,11.50
2016,04,28,08,32,11.60
2016,04,28,08,33,11.60
2016,04,28,08,34,11.60
2016,04,28,08,35,11.70
2016,04,28,08,36,11.70
2016,04,28,08,37,11.70
2016,04,28,08,38,11.70
2016,04,28,08,39,11.70
2016,04,28,08,40,11.70
2016,04,28,08,41,11.70
2016,04,28,08,42,11.70
2016,04,28,08,43,11.80
2016,04,28,08,44,11.80
2016,04,28,08,45,11.80
2016,04,28,08,46,11.80
2016,04,28,08,47,11.80
2016,04,28,08,48,11.80
2016,04,28,08,49,11.90
2016,04,28,08,50,11.90
2016,04,28,08,51,11.90
2016,04,28,08,52,11.90
2016,04,28,08,53,11.90
2016,04,28,08,54,11.90
2016,04,28,08,55,11.90
2016,04,28,08,56,12.00
2016,04,28,08,57,12.00
2016,04,28,08,58,12.10
2016,04,28,08,59,12.10
2016,04,28,09,00,12.20
2016,04,28,09,01,12.20
2016,04,28,09,02,12.30
2016,04,28,09,03,12.30
2016,04,28,09,04,12.30
2016,04,28,09,05,12.40
2016,04,28,09,06,12.40
2016,04,28,09,07,12.40
2016,04,28,09,08,12.50
2016,04,28,09,09,12.50
2016,04,28,09,10,12.60
2016,04,28,09,11,12.60
2016,04,28,09,12,12.60
2016,04,28,09,13,12.70
2016,04,28,09,14,12.70
2016,04,28,09,15,12.80
2016,04,28,09,16,12.80
2016,04,28,09,17,12.80
2016,04,28,09,18,12.80
2016,04,28,09,19,12.80
2016,04,28,09,20,12.80
2016,04,28,09,21,12.90
2016,04,28,09,22,12.90
2016,04,28,09,23,13.00
2016,04,28,09,24,13.10
2016,04,28,09,25,13.10
2016,04,28,09,26,13.10
2016,04,28,09,27,13.10
2016,04,28,09,28,13.10
2016,04,28,09,29,13.10
2016,04,28,09,30,13.20
2016,04,28,09,31,13.20
2016,04,28,09,32,13.20
2016,04,28,09,33,13.20
2016,04,28,09,34,13.30
2016,04,28,09,35,13.30
2016,04,28,09,36,13.30
2016,04,28,09,37,13.30
2016,04,28,09,38,13.30
2016,04,28,09,39,13.40
2016,04,28,09,40,13.40
2016,04,28,09,41,13.50
2016,04,28,09,42,13.50
2016,04,28,09,43,13.60
2016,04,28,09,44,13.70
2016,04,28,09,45,13.80
2016,04,28,09,46,13.80
2016,04,28,09,47,13.90
2016,04,28,09,48,14.00
2016,04,28,09,49,14.10
2016,04,28,09,50,14.10
2016,04,28,09,51,14.10
2016,04,28,09,52,14.20
2016,04,28,09,53,14.20
2016,04,28,09,54,14.20
2016,04,28,09,55,14.20
2016,04,28,09,56,14.20
2016,04,28,09,57,14.30
2016,04,28,09,58,14.20
2016,04,28,09,59,14.20
2016,04,28,10,00,14.20
2016,04,28,10,01,14.30
2016,04,28,10,02,14.30
2016,04,28,10,03,14.30
2016,04,28,10,04,14.30
2016,04,28,10,05,14.30
2016,04,28,10,06,14.40
2016,04,28,10,07,14.40
2016,04,28,10,08,14.40
2016,04,28,10,09,14.40
2016,04,28,10,10,14.40
2016,04,28,10,11,14.40
2016,04,28,10,12,14.40
2016,04,28,10,13,14.50
2016,04,28,10,14,14.50
2016,04,28,10,15,14.50
2016,04,28,10,16,14.60
2016,04,28,10,17,14.70
2016,04,28,10,18,14.70
2016,04,28,10,19,14.80
2016,04,28,10,20,14.90
2016,04,28,10,21,14.90
2016,04,28,10,22,15.00
2016,04,28,10,23,15.00
2016,04,28,10,24,15.00
2016,04,28,10,25,14.90
2016,04,28,10,26,14.70
2016,04,28,10,27,14.70
2016,04,28,10,28,14.60
2016,04,28,10,29,14.50
2016,04,28,10,30,14.40
2016,04,28,10,31,14.40
2016,04,28,10,32,14.30
2016,04,28,10,33,14.20
2016,04,28,10,34,14.10
2016,04,28,10,35,14.10
2016,04,28,10,36,14.10
2016,04,28,10,37,14.10
2016,04,28,10,38,14.10
2016,04,28,10,39,14.00
2016,04,28,10,40,14.00
2016,04,28,10,41,14.10
2016,04,28,10,42,14.10
2016,04,28,10,43,14.10
2016,04,28,10,44,14.20
2016,04,28,10,45,14.20
2016,04,28,10,46,14.20
2016,04,28,10,47,14.30
2016,04,28,10,48,14.30
2016,04,28,10,49,14.40
2016,04,28,10,50,14.50
2016,04,28,10,51,14.60
2016,04,28,10,52,14.70
2016,04,28,10,53,14.70
2016,04,28,10,54,14.70
2016,04,28,10,55,14.70
2016,04,28,10,56,14.70
2016,04,28,10,57,14.70
2016,04,28,10,58,14.70
2016,04,28,10,59,14.80
2016,04,28,11,00,14.80
2016,04,28,11,01,14.80
2016,04,28,11,02,14.80
2016,04,28,11,03,14.90
2016,04,28,11,04,15.00
2016,04,28,11,05,15.10
2016,04,28,11,06,15.10
2016,04,28,11,07,15.20
2016,04,28,11,08,15.30
2016,04,28,11,09,15.30
2016,04,28,11,10,15.30
2016,04,28,11,11,15.30
2016,04,28,11,12,15.40
2016,04,28,11,13,15.40
2016,04,28,11,14,15.40
2016,04,28,11,15,15.40
2016,04,28,11,16,15.20
2016,04,28,11,17,15.10
2016,04,28,11,18,15.00
2016,04,28,11,19,14.80
2016,04,28,11,20,14.70
2016,04,28,11,21,14.60
2016,04,28,11,22,14.60
2016,04,28,11,23,14.70
2016,04,28,11,24,14.70
2016,04,28,11,25,14.80
2016,04,28,11,26,14.90
2016,04,28,11,27,14.90
2016,04,28,11,28,14.80
2016,04,28,11,29,14.70
2016,04,28,11,30,14.60
2016,04,28,11,31,14.60
2016,04,28,11,32,14.80
2016,04,28,11,33,14.80
2016,04,28,11,34,14.80
2016,04,28,11,35,14.80
2016,04,28,11,36,14.90
2016,04,28,11,37,15.00
2016,04,28,11,38,15.00
2016,04,28,11,39,15.00
2016,04,28,11,40,15.00
2016,04,28,11,41,15.10
2016,04,28,11,42,15.20
2016,04,28,11,43,15.40
2016,04,28,11,44,15.40
2016,04,28,11,45,15.40
2016,04,28,11,46,15.40
2016,04,28,11,47,15.40
2016,04,28,11,48,15.50
2016,04,28,11,49,15.60
2016,04,28,11,50,15.70
2016,04,28,11,51,15.60
2016,04,28,11,52,15.70
2016,04,28,11,53,15.60
2016,04,28,11,54,15.50
2016,04,28,11,55,15.50
2016,04,28,11,56,15.40
2016,04,28,11,57,15.50
2016,04,28,11,58,15.50
2016,04,28,11,59,15.50
2016,04,28,12,00,15.40
2016,04,28,12,01,15.30
2016,04,28,12,02,15.30
2016,04,28,12,03,15.40
2016,04,28,12,04,15.40
2016,04,28,12,05,15.50
2016,04,28,12,06,15.60
2016,04,28,12,07,15.70
2016,04,28,12,08,15.80
2016,04,28,12,09,15.90
2016,04,28,12,10,15.90
2016,04,28,12,11,16.10
2016,04,28,12,12,16.20
2016,04,28,12,13,16.30
2016,04,28,12,14,16.40
2016,04,28,12,15,16.50
2016,04,28,12,16,16.40
2016,04,28,12,17,16.40
2016,04,28,12,18,16.30
2016,04,28,12,19,16.30
2016,04,28,12,20,16.30
2016,04,28,12,21,16.30
2016,04,28,12,22,16.30
2016,04,28,12,23,16.30
2016,04,28,12,24,16.40
2016,04,28,12,25,16.50
2016,04,28,12,26,16.60
2016,04,28,12,27,16.60
2016,04,28,12,28,16.60
2016,04,28,12,29,16.60
2016,04,28,12,30,16.60
2016,04,28,12,31,16.60
2016,04,28,12,32,16.60
2016,04,28,12,33,16.60
2016,04,28,12,34,16.70
2016,04,28,12,35,16.70
2016,04,28,12,36,16.60
2016,04,28,12,37,16.50
2016,04,28,12,38,16.40
2016,04,28,12,39,16.20
2016,04,28,12,40,16.20
2016,04,28,12,41,16.20
2016,04,28,12,42,16.30
2016,04,28,12,43,16.40
2016,04,28,12,44,16.50
2016,04,28,12,45,16.50
2016,04,28,12,46,16.60
2016,04,28,12,47,16.70
2016,04,28,12,48,16.70
2016,04,28,12,49,16.70
2016,04,28,12,50,16.70
2016,04,28,12,51,16.70
2016,04,28,12,52,16.70
2016,04,28,12,53,16.60
2016,04,28,12,54,16.60
2016,04,28,12,55,16.60
2016,04,28,12,56,16.50
2016,04,28,12,57,16.40
2016,04,28,12,58,16.40
2016,04,28,12,59,16.40
2016,04,28,13,00,16.40
2016,04,28,13,01,16.40
2016,04,28,13,02,16.40
2016,04,28,13,03,16.40
2016,04,28,13,04,16.60
2016,04,28,13,05,16.70
2016,04,28,13,06,16.70
2016,04,28,13,07,16.60
2016,04,28,13,08,16.40
2016,04,28,13,09,16.40
2016,04,28,13,10,16.40
2016,04,28,13,11,16.50
2016,04,28,13,12,16.60
2016,04,28,13,13,16.70
2016,04,28,13,14,16.80
2016,04,28,13,15,16.90
2016,04,28,13,16,16.90
2016,04,28,13,17,16.90
2016,04,28,13,18,16.80
2016,04,28,13,19,16.80
2016,04,28,13,20,16.80
2016,04,28,13,21,16.80
2016,04,28,13,22,16.80
2016,04,28,13,23,16.80
2016,04,28,13,24,16.80
2016,04,28,13,25,16.70
2016,04,28,13,26,16.70
2016,04,28,13,27,16.80
2016,04,28,13,28,16.90
2016,04,28,13,29,17.00
2016,04,28,13,30,17.10
2016,04,28,13,31,17.20
2016,04,28,13,32,17.30
2016,04,28,13,33,17.30
2016,04,28,13,34,17.20
2016,04,28,13,35,17.10
2016,04,28,13,36,17.10
2016,04,28,13,37,17.20
2016,04,28,13,38,17.10
2016,04,28,13,39,17.10
2016,04,28,13,40,17.20
2016,04,28,13,41,17.30
2016,04,28,13,42,17.40
2016,04,28,13,43,17.40
2016,04,28,13,44,17.50
2016,04,28,13,45,17.50
2016,04,28,13,46,17.40
2016,04,28,13,47,17.50
2016,04,28,13,48,17.50
2016,04,28,13,49,17.40
2016,04,28,13,50,17.30
2016,04,28,13,51,17.20
2016,04,28,13,52,17.10
2016,04,28,13,53,17.10
2016,04,28,13,54,17.10
2016,04,28,13,55,17.20
2016,04,28,13,56,17.30
2016,04,28,13,57,17.30
2016,04,28,13,58,17.40
2016,04,28,13,59,17.40
2016,04,28,14,00,17.40
2016,04,28,14,01,17.40
2016,04,28,14,02,17.50
2016,04,28,14,03,17.50
2016,04,28,14,04,17.60
2016,04,28,14,05,17.70
2016,04,28,14,06,17.80
2016,04,28,14,07,17.70
2016,04,28,14,08,17.60
2016,04,28,14,09,17.40
2016,04,28,14,10,17.40
2016,04,28,14,11,17.40
2016,04,28,14,12,17.30
2016,04,28,14,13,17.20
2016,04,28,14,14,17.20
2016,04,28,14,15,17.20
2016,04,28,14,16,17.20
2016,04,28,14,17,17.10
2016,04,28,14,18,17.00
2016,04,28,14,19,17.00
2016,04,28,14,20,17.00
2016,04,28,14,21,17.00
2016,04,28,14,22,17.10
2016,04,28,14,23,17.10
2016,04,28,14,24,17.10
2016,04,28,14,25,17.20
2016,04,28,14,26,17.30
2016,04,28,14,27,17.30
2016,04,28,14,28,17.30
2016,04,28,14,29,17.30
2016,04,28,14,30,17.30
2016,04,28,14,31,17.20
2016,04,28,14,32,17.20
2016,04,28,14,33,17.20
2016,04,28,14,34,17.10
2016,04,28,14,35,17.10
2016,04,28,14,36,17.00
2016,04,28,14,37,17.00
2016,04,28,14,38,17.00
2016,04,28,14,39,16.90
2016,04,28,14,40,17.00
2016,04,28,14,41,17.00
2016,04,28,14,42,17.10
2016,04,28,14,43,17.10
2016,04,28,14,44,17.20
2016,04,28,14,45,17.30
2016,04,28,14,46,17.30
2016,04,28,14,47,17.30
2016,04,28,14,48,17.30
2016,04,28,14,49,17.30
2016,04,28,14,50,17.30
2016,04,28,14,51,17.30
2016,04,28,14,52,17.40
2016,04,28,14,53,17.40
2016,04,28,14,54,17.40
2016,04,28,14,55,17.50
2016,04,28,14,56,17.60
2016,04,28,14,57,17.70
2016,04,28,14,58,17.80
2016,04,28,14,59,17.80
2016,04,28,15,00,17.70
2016,04,28,15,01,17.70
2016,04,28,15,02,17.60
2016,04,28,15,03,17.60
2016,04,28,15,04,17.50
2016,04,28,15,05,17.50
2016,04,28,15,06,17.50
2016,04,28,15,07,17.50
2016,04,28,15,08,17.50
2016,04,28,15,09,17.40
2016,04,28,15,10,17.40
2016,04,28,15,11,17.30
2016,04,28,15,12,17.30
2016,04,28,15,13,17.20
2016,04,28,15,14,17.10
2016,04,28,15,15,17.00
2016,04,28,15,16,17.00
2016,04,28,15,17,17.00
2016,04,28,15,18,16.90
2016,04,28,15,19,16.80
2016,04,28,15,20,16.80
2016,04,28,15,21,16.70
2016,04,28,15,22,16.60
2016,04,28,15,23,16.60
2016,04,28,15,24,16.50
2016,04,28,15,25,16.50
2016,04,28,15,26,16.50
2016,04,28,15,27,16.50
2016,04,28,15,28,16.60
2016,04,28,15,29,16.60
2016,04,28,15,30,16.60
2016,04,28,15,31,16.70
2016,04,28,15,32,16.70
2016,04,28,15,33,16.70
2016,04,28,15,34,16.70
2016,04,28,15,35,16.70
2016,04,28,15,36,16.60
2016,04,28,15,37,16.60
2016,04,28,15,38,16.60
2016,04,28,15,39,16.50
2016,04,28,15,40,16.50
2016,04,28,15,41,16.40
2016,04,28,15,42,16.30
2016,04,28,15,43,16.30
2016,04,28,15,44,16.20
2016,04,28,15,45,16.20
2016,04,28,15,46,16.10
2016,04,28,15,47,16.10
2016,04,28,15,48,16.00
2016,04,28,15,49,16.00
2016,04,28,15,50,15.90
2016,04,28,15,51,15.90
2016,04,28,15,52,15.80
2016,04,28,15,53,15.80
2016,04,28,15,54,15.70
2016,04,28,15,55,15.70
2016,04,28,15,56,15.60
2016,04,28,15,57,15.60
2016,04,28,15,58,15.60
2016,04,28,15,59,15.50
2016,04,28,16,00,15.50
2016,04,28,16,01,15.40
2016,04,28,16,02,15.40
2016,04,28,16,03,15.40
2016,04,28,16,04,15.40
2016,04,28,16,05,15.40
2016,04,28,16,06,15.40
2016,04,28,16,07,15.50
2016,04,28,16,08,15.50
2016,04,28,16,09,15.50
2016,04,28,16,10,15.50
2016,04,28,16,11,15.50
2016,04,28,16,12,15.50
2016,04,28,16,13,15.50
2016,04,28,16,14,15.50
2016,04,28,16,15,15.50
2016,04,28,16,16,15.60
2016,04,28,16,17,15.60
2016,04,28,16,18,15.70
2016,04,28,16,19,15.70
2016,04,28,16,20,15.70
2016,04,28,16,21,15.70
2016,04,28,16,22,15.70
2016,04,28,16,23,15.70
2016,04,28,16,24,15.70
2016,04,28,16,25,15.60
2016,04,28,16,26,15.60
2016,04,28,16,27,15.60
2016,04,28,16,28,15.70
2016,04,28,16,29,15.80
2016,04,28,16,30,15.90
2016,04,28,16,31,15.90
2016,04,28,16,32,16.00
2016,04,28,16,33,16.10
2016,04,28,16,34,16.10
2016,04,28,16,35,16.10
2016,04,28,16,36,16.10
2016,04,28,16,37,16.20
2016,04,28,16,38,16.20
2016,04,28,16,39,16.10
2016,04,28,16,40,16.00
2016,04,28,16,41,15.90
2016,04,28,16,42,15.90
2016,04,28,16,43,16.00
2016,04,28,16,44,16.10
2016,04,28,16,45,16.20
2016,04,28,16,46,16.20
2016,04,28,16,47,16.10
2016,04,28,16,48,16.10
2016,04,28,16,49,16.20
2016,04,28,16,50,16.20
2016,04,28,16,51,16.20
2016,04,28,16,52,16.20
2016,04,28,16,53,16.30
2016,04,28,16,54,16.30
2016,04,28,16,55,16.30
2016,04,28,16,56,16.30
2016,04,28,16,57,16.30
2016,04,28,16,58,16.30
2016,04,28,16,59,16.20
2016,04,28,17,00,16.20
2016,04,28,17,01,16.10
2016,04,28,17,02,16.10
2016,04,28,17,03,16.00
2016,04,28,17,04,15.90
2016,04,28,17,05,15.90
2016,04,28,17,06,15.80
2016,04,28,17,07,15.80
2016,04,28,17,08,15.90
2016,04,28,17,09,15.90
2016,04,28,17,10,16.00
2016,04,28,17,11,16.10
2016,04,28,17,12,16.10
2016,04,28,17,13,16.10
2016,04,28,17,14,16.20
2016,04,28,17,15,16.20
2016,04,28,17,16,16.20
2016,04,28,17,17,16.20
2016,04,28,17,18,16.20
2016,04,28,17,19,16.20
2016,04,28,17,20,16.30
2016,04,28,17,21,16.30
2016,04,28,17,22,16.40
2016,04,28,17,23,16.40
2016,04,28,17,24,16.40
2016,04,28,17,25,16.50
2016,04,28,17,26,16.50
2016,04,28,17,27,16.50
2016,04,28,17,28,16.40
2016,04,28,17,29,16.40
2016,04,28,17,30,16.30
2016,04,28,17,31,16.30
2016,04,28,17,32,16.30
2016,04,28,17,33,16.30
2016,04,28,17,34,16.30
2016,04,28,17,35,16.30
2016,04,28,17,36,16.30
2016,04,28,17,37,16.30
2016,04,28,17,38,16.30
2016,04,28,17,39,16.30
2016,04,28,17,40,16.30
2016,04,28,17,41,16.30
2016,04,28,17,42,16.30